Location: Unspecified
(0.0000°N, 0.0000°E)
Time: 19:00:37
(UTC+00:00)

Vanguard 2 Rocket - Pass Details

Date: 23 January 2020
Orbit: 554 x 3327 km, 32.9° (Epoch: 20 February)

Event Time Altitude Azimuth Distance (km) Brightness Sun altitude
Rises 18:48:28 0° 239° (WSW) 7,233 13.5 -8.6°
Reaches altitude 10° 18:58:23 10° 216° (SW) 5,812 11.9 -11.0°
Maximum altitude 19:05:12 13° 192° (SSW) 5,092 11.1 -12.6°
Drops below altitude 10° 19:11:04 10° 168° (SSE) 4,859 10.7 -14.0°
Sets 19:17:33 0° 142° (SE) 5,197 10.6 -15.5°
